• Join FlightAware (Why Join?)
  • Login
  • US Flag 
09:52AM EST


 

Airport Tracker/Info


-or-


 

Live Flight TrackerFlight Track Log ✈ EGF4247 ✈ 04-Jun-2013 ✈ KBUF - KORD

Flight Track Log - Related Links

Times and Time Zones

All times are in EDT time to prevent confusion due to time zone crossing. See the EGF4247 flight status page for this flight to view local times or setup timezone preferences in your user account.

Time Position Orientation Groundspeed Altitude Reporting Facility
EDT Latitude Longitude Course Direction KTS MPH feet Rate Location/Type
03:54PM 42.9500 -78.7167 270° West 164 189 1,300  Level Buffalo TRACON
03:55PM 42.9833 -78.6667 48° Northeast 185 213 3,500 2,150 Climbing Buffalo TRACON
03:56PM 42.9500 -78.9506 270° West  Level FlightAware Approximate
03:56PM 43.0333 -78.7000 334° Northwest 228 262 5,600  Level Buffalo TRACON
03:57PM 42.9502 -79.0689 277° West  Level FlightAware Approximate
03:57PM 43.0333 -78.7833 270° West 263 303 7,600  Level Buffalo TRACON
03:58PM 42.9600 -79.1864 277° West  Level FlightAware Approximate
03:58PM 43.0333 -78.8833 270° West 262 302 10,100  Level Buffalo TRACON
03:59PM 42.9667 -79.3042 270° West  Level FlightAware Approximate
03:59PM 43.0333 -79.0000 270° West 293 337 11,300  Level Buffalo TRACON
04:00PM 43.0333 -79.1000 270° West 332 382 12,200 1,263 Climbing Buffalo TRACON
04:01PM 43.0333 -79.2333 270° West 344 396 13,700 1,513 Climbing Buffalo TRACON
04:02PM 43.0333 -79.3667 270° West 340 391 15,200 1,513 Climbing Toronto Center
04:03PM 43.0333 -79.4667 270° West 340 391 16,700 1,350 Climbing Toronto Center
04:04PM 43.0333 -79.6167 270° West 340 391 17,900 1,400 Climbing Toronto Center
04:05PM 43.0333 -79.7167 270° West 330 380 19,500 1,550 Climbing Toronto Center
04:06PM 43.0333 -79.8667 270° West 330 380 21,000 1,500 Climbing Toronto Center
04:07PM 43.0333 -79.9833 270° West 330 380 22,500 1,450 Climbing Toronto Center
04:08PM 43.0333 -80.1167 270° West 330 380 23,900 1,200 Climbing Toronto Center
04:09PM 43.0333 -80.2333 270° West 330 380 24,900 1,050 Climbing Toronto Center
04:10PM 43.0333 -80.3667 270° West 350 403 26,000 1,000 Climbing Toronto Center
04:11PM 43.0333 -80.5000 270° West 350 403 26,900 1,000 Climbing Toronto Center
04:12PM 43.0333 -80.6333 270° West 350 403 28,000 1,050 Climbing Toronto Center
04:13PM 43.0333 -80.7667 270° West 350 403 29,000 1,000 Climbing Toronto Center
04:14PM 43.0167 -80.9167 261° West 350 403 30,000 500 Climbing Toronto Center
04:15PM 43.0167 -81.0500 270° West 360 414 30,000  Level Toronto Center
04:16PM 43.0167 -81.2000 270° West 390 449 30,000  Level Toronto Center
04:17PM 43.0167 -81.3500 270° West 390 449 30,000  Level Toronto Center
04:18PM 43.0167 -81.4833 270° West 400 460 30,000  Level Toronto Center
04:19PM 43.0167 -81.6333 270° West 400 460 30,000  Level Toronto Center
04:20PM 43.0167 -81.8000 270° West 400 460 30,000  Level Toronto Center
04:21PM 43.0000 -81.9333 260° West 400 460 30,000  Level Toronto Center
04:22PM 43.0000 -82.1000 270° West 400 460 30,000  Level Toronto Center
04:23PM 43.0000 -82.2500 270° West 410 472 30,000  Level Toronto Center
04:24PM 43.0000 -82.4167 270° West 410 472 30,000  Level Toronto Center
04:25PM 43.0000 -82.5667 270° West 410 472 30,000  Level Toronto Center
04:26PM 43.0014 -82.7008 271° West 409 471 30,000  Level Cleveland Center
04:27PM 42.9964 -82.8569 268° West 409 471 30,000  Level Cleveland Center
04:28PM 42.9911 -83.0072 267° West 409 471 30,000  Level Cleveland Center
04:29PM 42.9856 -83.1658 267° West 409 471 30,000  Level Cleveland Center
04:30PM 42.9803 -83.3133 267° West 404 465 30,000  Level Cleveland Center
04:31PM 42.9744 -83.4633 267° West 404 465 30,000  Level Cleveland Center
04:32PM 42.9686 -83.6108 267° West 399 459 30,000  Level Cleveland Center
04:33PM 42.9625 -83.7636 267° West 404 465 30,000  Level Cleveland Center
04:34PM 42.9497 -83.9164 264° West 404 465 30,000  Level Cleveland Center
04:36PM 42.9169 -84.2508 262° West 405 466 30,000  Level Chicago Center
04:37PM 42.8986 -84.4325 262° West 403 464 30,000  Level Chicago Center
04:38PM 42.8831 -84.5856 262° West 406 467 30,000  Level Chicago Center
04:39PM 42.8672 -84.7378 262° West 407 468 30,000  Level Chicago Center
04:40PM 42.8519 -84.8875 262° West 401 461 30,000 -145 Level Chicago Center
04:41PM 42.8356 -85.0394 262° West 406 467 29,700 -1,113 Descending Chicago Center
04:42PM 42.8203 -85.1869 262° West 397 457 27,700 -2,177 Descending Chicago Center
04:43PM 42.7994 -85.3697 261° West 402 463 25,200 -2,160 Descending Chicago Center
04:44PM 42.7811 -85.5258 261° West 412 474 23,200 -1,920 Descending Chicago Center
04:45PM 42.7536 -85.6725 256° West 403 464 21,200 -1,548 Descending Chicago Center
04:46PM 42.7283 -85.8133 256° West 386 444 20,000 -581 Descending Chicago Center
04:48PM 42.6986 -85.9531 254° West 383 441 20,000  Level Chicago Center
04:49PM 42.6703 -86.0919 255° West 380 437 20,000  Level Chicago Center
04:50PM 42.6408 -86.2319 254° West 383 441 20,000  Level Chicago Center
04:51PM 42.6114 -86.3703 254° West 382 440 20,000 -677 Level Chicago Center
04:52PM 42.5767 -86.5378 254° West 383 441 18,600 -1,694 Descending Chicago Center
04:53PM 42.5497 -86.6683 254° West 365 420 16,500 -2,177 Descending Chicago Center
04:54PM 42.5247 -86.7900 254° West 341 392 14,100 -2,274 Descending Chicago Center
04:55PM 42.4969 -86.9156 253° West 346 398 11,800 -1,839 Descending Chicago Center
04:56PM 42.4708 -87.0411 254° West 346 398 10,300 -864 Descending Chicago Center
04:57PM 42.4411 -87.1644 252° West 347 399 10,000 -144 Descending Chicago Center
04:58PM 42.4014 -87.3081 250° West 340 391 10,000  Level Chicago Center
04:59PM 42.3711 -87.4131 249° West 335 386 10,000  Level Chicago Center
05:00PM 42.3258 -87.5472 246° West 338 389 10,000 -524 Level Chicago Center
05:01PM 42.2672 -87.6122 219° Southwest 274 315 8,900 -1,381 Descending Chicago Center
05:02PM 42.2072 -87.6728 217° Southwest 271 312 7,100 -919 Descending Chicago Center
05:03PM 42.1497 -87.7358 219° Southwest 269 310 7,000 -48 Descending Chicago Center
05:04PM 42.0931 -87.8131 225° Southwest 243 280 7,000  Level Chicago Center
05:05PM 42.0908 -87.9008 268° West 238 274 7,000 65 Level Chicago Center
05:06PM 42.0833 -87.9500 258° West 238 274 7,100 -133 Climbing Chicago TRACON
05:07PM 42.1000 -88.0333 285° West 231 266 6,800 -1,000 Descending Chicago TRACON
05:08PM 42.0833 -88.1167 255° West 231 266 5,100 -1,546 Descending Chicago TRACON
05:08PM 42.0772 -88.1517 257° West 238 274 4,300 -1,297 Descending Chicago Center